Tracking 17855 objects as of 25-September-2016
HD Live streaming from Space Station
objects crossing your sky now

COSMOS 2286

Track COSMOS 2286 now!
COSMOS 2286 is classified as:


NORAD ID: 23194
Int'l Code: 1994-048A
Perigee: 3,763.8 km
Apogee: 36,714.7 km
Inclination: 67.7 °
Period: 720.0 minutes
Semi major axis: 26610 km
RCS: 14.1879 m2 (large)
Launch date: August 5, 1994
Source: Commonwealth of Independent States (former USSR) (CIS)
Launch site: PLESETSK MISSILE AND SPACE COMPLEX (PKMTR)
Your satellite tracking list
Your tracking list is empty





NASA's NSSDC Master Catalog

Two Line Element Set (TLE):
1 23194U 94048A   16267.45678070 -.00000809 +00000-0 +00000-0 0  9991
2 23194 067.7274 029.0273 6191391 186.6684 158.0792 02.00767169162195
Source of the keplerian elements: AFSPC

N2YO: 411